TimeCST,TemperatureF,Dew PointF,Humidity,Sea Level PressureIn,VisibilityMPH,Wind Direction,Wind SpeedMPH,Gust SpeedMPH,PrecipitationIn,Events,Conditions,WindDirDegrees,DateUTC
12:53 AM,28.0,19.9,72,30.39,10.0,North,11.5,-,N/A,,Clear,360,2012-12-05 06:53:00
1:53 AM,27.0,19.9,75,30.39,10.0,NNE,6.9,-,N/A,,Clear,20,2012-12-05 07:53:00
2:53 AM,25.0,16.0,69,30.42,10.0,NNE,4.6,-,N/A,,Clear,30,2012-12-05 08:53:00
3:53 AM,23.0,15.1,72,30.41,10.0,NE,6.9,-,N/A,,Clear,40,2012-12-05 09:53:00
4:53 AM,23.0,14.0,68,30.42,10.0,NNE,8.1,-,N/A,,Clear,30,2012-12-05 10:53:00
5:53 AM,23.0,14.0,68,30.42,10.0,NE,10.4,-,N/A,,Clear,50,2012-12-05 11:53:00
6:53 AM,21.9,14.0,72,30.44,10.0,NE,8.1,-,N/A,,Clear,50,2012-12-05 12:53:00
8:53 AM,25.0,14.0,63,30.45,10.0,ENE,10.4,-,N/A,,Clear,70,2012-12-05 14:53:00
9:53 AM,27.0,14.0,58,30.44,10.0,East,9.2,-,N/A,,Clear,100,2012-12-05 15:53:00
10:53 AM,30.0,15.1,54,30.44,10.0,ESE,8.1,-,N/A,,Clear,120,2012-12-05 16:53:00
11:53 AM,33.1,15.1,48,30.40,10.0,SE,10.4,-,N/A,,Clear,130,2012-12-05 17:53:00
12:53 PM,35.1,16.0,46,30.36,10.0,SE,6.9,-,N/A,,Clear,140,2012-12-05 18:53:00
1:53 PM,36.0,15.1,43,30.34,10.0,SSE,11.5,-,N/A,,Clear,150,2012-12-05 19:53:00
2:53 PM,36.0,17.1,46,30.33,10.0,SSE,10.4,-,N/A,,Clear,150,2012-12-05 20:53:00
3:53 PM,35.1,18.0,50,30.31,10.0,SE,9.2,-,N/A,,Clear,130,2012-12-05 21:53:00
4:53 PM,33.1,19.0,56,30.29,10.0,SE,6.9,-,N/A,,Clear,140,2012-12-05 22:53:00
5:53 PM,32.0,19.0,59,30.27,10.0,SE,6.9,-,N/A,,Clear,140,2012-12-05 23:53:00
6:53 PM,32.0,19.0,59,30.26,10.0,SE,10.4,-,N/A,,Clear,140,2012-12-06 00:53:00
7:53 PM,35.1,21.0,57,30.23,10.0,SSE,17.3,-,N/A,,Clear,150,2012-12-06 01:53:00
8:53 PM,34.0,23.0,64,30.19,10.0,SSE,18.4,-,N/A,,Clear,160,2012-12-06 02:53:00
9:53 PM,34.0,26.1,73,30.18,10.0,SSE,13.8,-,N/A,,Clear,160,2012-12-06 03:53:00
10:53 PM,35.1,28.0,76,30.14,10.0,SSE,19.6,-,N/A,,Clear,150,2012-12-06 04:53:00
11:53 PM,35.1,28.9,78,30.14,10.0,SSE,17.3,-,N/A,,Mostly Cloudy,150,2012-12-06 05:53:00